S16G24

Glossary On

31 Dec 2019 ... ... PRES REMARKS CINC-COVINGTON LGT RAIN 44 40 85 S16G24 29.88F FOG CINC-LUNKEN RAIN 41 39 93 S14 29.92F FOG HAMILTON ...

s16g24

The Military Network - RallyPoint

KFYV Fayetteville, AR. OVC 5RA-FG 66 62 87 SSW13G23 29.61 RAB12 P0007/ KHKA Blytheville, AR. CLR 7 86 68 55 S16G24 29.79. KHOT Hot Springs, AR.

s16g24

RWR from KSEW

RENTON CLOUDY 58 52 80 S16G24 30.03S 6HR MIN TEMP: 53; 6HR MAX TEMP: 58; 6HR PCP: 0.07; SEATAC AIRPORT CLOUDY 58 53 84 S21G29 30.04 R

s16g24

READY -

... 72 64 78 SW16 29.98F WASHINGTON PTSUNNY 73 64 73 S14G21 29.97F ELIZABETH CITY LGT RAIN 69 63 81 S16G24 29.93F MANTEO PTSUNNY 63 60 ...

s16g24

RWR from KSLC

ELKO, NV PTSUNNY 57 47 69 S16G24 29.58F POCATELLO, ID CLOUDY 54 47 77 CALM 29.62F EVANSTON, WY LGT RAIN 57 46 66 SW29G37 29.66F

s16g24

National Weather Service National Headquarters

... CLOUDY 47 43 86 SE7 29.25S EAU CLAIRE MOCLDY 49 41 74 S16G24 29.20F MENOMONIE CLOUDY 45 40 85 SE12 29.19S NEW RICHMOND DRIZZLE ...

s16g24

Haakon County Weather and Climate Synopsis

... 67 67 100 N6 29.88F PINE RIDGE CLEAR 61 59 93 CALM 29.95S SPEARFISH FAIR 64 64 100 CALM 29.98S WINNER FAIR 71 64 78 S16G24 29.83S.

s16g24

Solenoid operated spool valve (slip-on coil) WDMFA06 | Wandfluh

Solenoid operated spool valve (slip-on coil) WDMFA06. Wandfluh Worldwide; Products; Switching valves; WDMFA06. Switching valves Solenoid operated spool ...

s16g24

Chippewa County Weather and Climate Synopsis

... 29.95S MENOMONIE FAIR 66 43 44 SE14G22 29.94S NEW RICHMOND FAIR 69 41 36 S16G24 29.90S OSCEOLA FAIR 70 46 41 SE14G22 29.92R.

s16g24

Hourly Albany Georgia Regional Area Weather - WeatherWX.com

... SOUTH GEORGIA CITY SKY/WX TMP DP RH WIND PRES REMARKS SAVANNAH FAIR 83 60 45 SW12 30.00F VALDOSTA FAIR 79 63 57 S16G24 30.02F ...

s16g24

Hourly Killeen Texas Regional Area Weather - WeatherWX.com

... 76 S20 29.87R WACO-TSTC CLOUDY 77 72 83 S16G24 29.88R WACO- MCGREGOR N/A 81 72 74 S18 29.88R HILLSBORO CLOUDY 78 72 81 S18 29.87R ...

s16g24

NOAA NWS Hourly Roundups by Site - HerseyWeather.com

8 Feb 2020 ... ... 13 62 S12G17 30.01F WCI 13 CADILLAC PTSUNNY 14 6 69 S14G20 30.01F WCI -1 CHARLEVOIX CLOUDY 22 12 66 S16G24 29.96F WCI ...

s16g24

Sun Hydraulics

Join us at CONEXPO-CON/AGG & IFPE in Las Vegas March 10-14. Nuevas válvulas direccionales de bloqueo por asiento de 3 vías de la serie FLeX ™ ...

s16g24

Baseball vs vs. UW-Milwaukee on 3/10/2013 - Box Score ...

... Wind S16G24; Notes: Bamesberger faced 1 batter in the 4th. LANGLEY faced 4 batters in the 7th. Umpires: Home Plate: Thomas FloydFirst: Scott InmanThird ...

s16g24

READY -

... 41 S8G24 30.02F WCI 7 HINCKLEY FAIR 18 0 45 S16G29 30.08F WCI 3 CLOQUET FAIR 16 -8 35 S16G24 30.01F WCI 0 MCGREGOR FAIR 18 1 49 S22G29 ...

s16g24

Decision Support - Current Conditions

... SOUTHWEST OHIO CITY SKY/WX TMP DP RH WIND PRES REMARKS CINC- COVINGTON LGT RAIN 44 40 85 S16G24 29.88F FOG CINC-LUNKEN RAIN ...

s16g24

Ojo Feliz Fire Behavior Case Study – Print Version

CLAYTON SUNNY 79 12 8 S16G24 29.76F 6HR MIN TEMP: 55; 6HR MAX TEMP: 79; $$. 000. ASUS45 KABQ 180110. RWRNM. WEATHER ROUNDUP FOR ...

s16g24

Technical Support Document For the October 30, 2003 Natural Event

29 Oct 2003 ... LEADVILLE SUNNY 48 6 18 S16G24 29.71F. MONARCH PASS FAIR 34 10 37 S36G47 29.94S WCI 19. $$. COZ069>075-301900-. SAN LUIS ...

s16g24

Comments



Warning: file(keys/20.txt): failed to open stream: No such file or directory in /home/admin/web/vmi320931.contaboserver.net/public_html/theme/footer.php on line 50

Warning: shuffle() expects parameter 1 to be array, boolean given in /home/admin/web/vmi320931.contaboserver.net/public_html/theme/footer.php on line 51

Warning: Invalid argument supplied for foreach() in /home/admin/web/vmi320931.contaboserver.net/public_html/theme/footer.php on line 54


Subscribe tchesallayconrouss.ml